World > North America > United States > Oregon   City of Scappoose, OR

Hourly Scappoose, OR Regional Weather

Feedback E-mail the Weather

Quick WX

Scappoose, OR Weather Maps

°F °C°F °C
Scappoose Weather Map
UTC Time: 6/30/2022, 01:16
Your Time:

Scappoose, OR Regional Weather

Expires:202206300100;;411126
ASUS46 KPQR 300010
RWROR 

OREGON REGIONAL WEATHER ROUNDUP
NATIONAL WEATHER SERVICE PORTLAND OR
500 PM PDT WED JUN 29 2022

NOTE: "FAIR" INDICATES FEW OR NO CLOUDS BELOW 12,000 FEET WITH
NO SIGNIFICANT WEATHER AND/OR OBSTRUCTIONS TO VISIBILITY.


ORZ001>013-300100-
NORTHWEST OREGON

  
CITY           SKY/WX    TMP DP  RH WIND       PRES   REMARKS
ASTORIA        CLOUDY    62  52  69 W8        30.19F                  
6HR MIN TEMP:  60; 6HR MAX TEMP:  70;                                

TILLAMOOK      CLOUDY    63  52  67 NW9       30.21S                  
NEWPORT        SUNNY     59  54  82 NW14      30.21F                  
FLORENCE       FAIR      61  52  72 NW16G25   30.16F                  
PORTLAND       MOSUNNY   76  54  46 NW9       30.11F                  
6HR MIN TEMP:  65; 6HR MAX TEMP:  77;                                

VANCOUVER WA   SUNNY     74  54  49 NW10      30.12S                  
6HR MIN TEMP:  64; 6HR MAX TEMP:  75;                                

SCAPPOOSE      SUNNY     73  55  53 N12G22    30.11F                  
6HR MIN TEMP:  65; 6HR MAX TEMP:  75;                                

HILLSBORO      SUNNY     75  55  49 NE8       30.11F                  
6HR MIN TEMP:  63; 6HR MAX TEMP:  76;                                

AURORA         SUNNY     76  49  38 CALM      30.11F                  
6HR MIN TEMP:  61; 6HR MAX TEMP:  77;                                

MCMINNVILLE    SUNNY     75  56  51 W3        30.10F                  
6HR MIN TEMP:  62; 6HR MAX TEMP:  75;                                

SALEM          SUNNY     78  51  38 NW3       30.10F                  
6HR MIN TEMP:  64; 6HR MAX TEMP:  79;                                

CORVALLIS      SUNNY     75  53  46 N9        30.11F                  
EUGENE         MOSUNNY   76  56  49 N7        30.11F                  
6HR MIN TEMP:  60; 6HR MAX TEMP:  76;                                

CRESWELL       SUNNY     75  54  46 VRB6      30.09F                  
$$


SKY/WX - Weather  TMP - Temperature  DP - Dew Point  RH - Humidity
WIND - Wind Direction/Speed PRES - Barometric Pressure VSB - Visibility
WCI - Wind Chill Index E13G22 Wind - East Wind 13 mph/Gusts of 22 mph

Trending Headlines

Scappoose Radar Loop



Scappoose Quick Facts


National Two Day Weather Forecast


E-mail the Scappoose Weather Forecast

Voice your opinion or tell us about page issues...